[[{"header":{"parameterUnit":"m.s-1","parameterCategory":1,"la1":30.2991,"la2":30.254,"lo1":-89.0895,"lo2":-89.0444,"dy":0.0017,"dx":0.0017,"nx":28,"ny":28,"refTime":"2024-05-18T21:00:00:Z","depth":0,"parameterNumber":2,"parameterNumberName":"U-component_of_WINDS"},"data":[0,0,0,0,0,0,0,0,0,0,0,0,0,0,0,0,0,0,0,0,0,0,0,0,0,0,0,0,0,0,0,0,0,0,0,0,0,0,0,0,0,0,0,0,0,0,0,0,0,0,0,0,0,0,0,0,0,0,3.3395,3.3396,0,3.3491,3.3492,3.3493,3.3445,3.3442,3.344,3.3437,3.3537,3.3541,3.3546,0,0,0,0,0,0,0,0,0,0,0,0,0,3.3172,3.3176,3.3395,3.3396,3.3398,3.3491,3.3492,3.3493,3.3445,3.3442,3.3439,3.3436,3.3535,3.3541,3.3547,0,0,0,0,0,0,0,0,0,0,0,0,0,3.3268,3.3178,3.3395,3.3385,3.3385,3.349,3.3492,3.3494,3.3446,3.3442,3.3438,3.3435,3.3533,3.354,3.3548,3.3669,0,0,3.357,3.3574,0,0,0,0,0,0,0,0,3.3263,3.3277,3.3385,3.3386,3.3386,3.3452,3.3449,3.3552,3.3447,3.3423,3.3437,3.3433,3.3512,3.3521,3.3547,3.3674,3.3678,3.3571,3.3576,3.3579,3.3581,0,0,0,0,0,0,0,3.3256,3.3272,3.3433,3.3387,3.3387,3.3376,3.3385,3.3469,3.3487,3.3425,3.3421,3.3433,3.3511,3.354,3.3549,3.3679,3.3571,3.3577,3.3582,3.3585,3.3909,3.3913,0,0,0,0,0,0,3.325,3.3267,3.343,3.3436,3.3314,3.3383,3.3393,3.3435,3.3486,3.349,3.3436,3.3431,3.3529,3.354,3.3552,3.3696,3.3579,3.3586,3.359,3.3905,3.391,3.3915,0,0,0,0,0,0,3.3245,3.3265,3.3426,3.3351,3.337,3.3391,3.3437,3.3439,3.3467,3.3495,3.3498,3.3462,3.3526,3.3542,3.364,3.3699,3.3589,3.3596,3.39,3.3907,3.3912,3.3986,0,0,0,0,0,0,3.3239,3.3264,3.331,3.3352,3.3374,3.3512,3.3441,3.3443,3.348,3.3473,3.352,3.3524,3.3524,3.3629,3.3647,3.3707,3.3602,3.3895,3.3903,3.391,3.3979,3.3994,3.4008,0,0,0,0,0,3.3231,3.3328,3.3312,3.3332,3.3433,3.3516,3.3529,3.3527,3.3485,3.3531,3.3549,3.3523,3.369,3.3639,3.366,3.3723,3.3891,3.3901,3.391,3.3972,3.3991,3.4007,0,0,0,0,0,0,3.3292,3.3333,3.3317,3.3429,3.3469,3.3508,3.3566,3.3547,3.3601,3.3592,3.3588,3.3599,3.3701,3.3722,3.3665,3.3842,3.3784,3.3798,3.3825,3.3843,3.3857,3.3849,3.3608,0,0,0,0,0,3.3319,3.3383,3.3415,3.3511,3.3532,3.3546,3.3582,3.3577,3.3619,3.3636,3.3661,3.3703,3.3764,3.3805,3.3864,3.3982,3.3991,3.4036,3.405,3.4062,3.4073,3.4136,3.4156,3.3945,3.3945,3.3945,0,0,3.3374,3.3404,3.3445,3.3524,3.3555,3.3621,3.3561,3.3634,3.3682,3.3647,3.374,3.3761,3.3807,3.3916,3.3965,3.3936,3.4134,3.4074,3.4083,3.4088,3.4148,3.4168,3.4185,3.3952,3.395,3.3949,0,0,3.3509,3.3538,3.3621,3.3653,3.3699,3.3708,3.3728,3.3769,3.3781,3.3875,3.3849,3.3908,3.4015,3.4048,3.4079,3.4226,3.4203,3.4246,3.4321,3.4382,3.4399,3.4413,3.4464,3.4483,3.4257,3.4258,3.4258,0,3.3571,3.367,3.3666,3.3741,3.3776,3.3746,3.383,3.3861,3.3925,3.395,3.3917,3.405,3.4079,3.4194,3.423,3.4257,3.4279,3.424,3.4397,3.4411,3.4425,3.4474,3.4493,3.4262,3.4262,3.4261,3.4261,0,3.3744,3.3813,3.3874,3.3936,3.3978,3.4057,3.4065,3.4108,3.41,3.4112,3.4207,3.4242,3.4306,3.4333,3.4326,3.4448,3.4428,3.4397,3.4338,3.445,3.4495,3.4514,3.4269,3.4267,3.4266,3.4265,0,0,3.3919,3.3977,3.4,3.4026,3.4076,3.4129,3.4207,3.4269,3.4305,3.4351,3.4415,3.4506,3.4476,3.4512,3.4508,3.4562,3.4675,3.4524,3.4525,3.4549,3.4809,3.4831,3.4853,3.466,3.4664,3.4667,3.4805,0,3.4056,3.419,3.4189,3.4314,3.4376,3.4349,3.4417,3.4454,3.4468,3.4523,3.4538,3.4602,3.4559,3.458,3.4632,3.465,3.4727,3.464,3.4719,3.4722,3.4707,3.4877,3.4901,3.5029,3.4823,3.4826,3.4828,0,3.4233,3.4283,3.4414,3.4453,3.4479,3.454,3.4596,3.4649,3.4691,3.4697,3.4737,3.4724,3.4803,3.4743,3.485,3.4792,3.4824,3.4838,3.4843,3.4849,3.4781,3.4886,3.5071,3.5089,3.4856,3.4854,3.4852,0,3.4345,3.4446,3.4536,3.4561,3.4609,3.4652,3.4674,3.4712,3.475,3.4799,3.4823,3.4882,3.4914,3.4959,3.4963,3.4919,3.5071,3.5012,3.5077,3.5077,3.5109,3.5107,3.53,3.5133,3.5133,3.5133,3.5132,0,3.4497,3.4578,3.4587,3.4643,3.4732,3.473,3.4819,3.4837,3.4871,3.493,3.4911,3.4966,3.4969,3.5026,3.503,3.5117,3.5132,3.5139,3.5138,3.514,3.5139,3.516,3.515,3.5138,3.5137,3.5136,3.5135,0,3.4637,3.4647,3.4744,3.4782,3.4793,3.4857,3.4889,3.4942,3.4953,3.5028,3.5045,3.5064,3.5129,3.5138,3.5216,3.5218,3.5323,3.5314,3.5308,3.5306,3.5371,3.5364,3.5583,3.5611,3.5428,3.543,3.5431,0,3.4733,3.4794,3.4838,3.4875,3.49,3.4961,3.4998,3.4999,3.5039,3.5091,3.5137,3.5201,3.5252,3.5359,3.5379,3.5438,3.5429,3.5502,3.5438,3.5436,3.5428,3.5424,3.5429,3.5513,3.5515,3.5517,3.5518,0,3.4901,3.4902,3.4957,3.5013,3.5058,3.5103,3.5145,3.5177,3.5182,3.5228,3.5295,3.5334,3.5413,3.5476,3.5534,3.5557,3.5539,3.5539,3.5557,3.5557,3.5551,3.5553,3.534,3.5533,3.5532,3.5531,3.553,3.5529,3.502,3.5073,3.5111,3.5173,3.5204,3.5243,3.5294,3.5312,3.5367,3.5431,3.5428,3.5501,3.5541,3.5617,3.5644,3.5701,3.5677,3.5704,3.571,3.5716,3.5722,3.5543,3.5712,3.5711,3.5711,3.5711,3.571,0,3.5185,3.5209,3.5265,3.5324,3.5372,3.535,3.5396,3.5437,3.5501,3.554,3.559,3.5666,3.5727,3.5752,3.5812,3.5853,3.5846,3.5869,3.5865,3.587,3.5741,3.5718,3.5873,3.5873,3.5873,3.5873,3.5873,3.5873,3.5277,3.5364,3.537,3.5473,3.5496,3.5566,3.5594,3.563,3.566,3.5746,3.5796,3.5812,3.5845,3.5907,3.5962,3.5967,3.599,3.6016,3.6018,3.5896,3.5879,3.5864,3.5842,3.6021,3.6021,3.6142,3.6143,3.6144]},{"header":{"parameterUnit":"m.s-1","parameterCategory":1,"la1":30.2991,"la2":30.254,"lo1":-89.0895,"lo2":-89.0444,"dy":0.0017,"dx":0.0017,"nx":28,"ny":28,"refTime":"2024-05-18T21:00:00:Z","depth":0,"parameterNumber":3,"parameterNumberName":"V-component_of_WINDS"},"data":[0,0,0,0,0,0,0,0,0,0,0,0,0,0,0,0,0,0,0,0,0,0,0,0,0,0,0,0,0,0,0,0,0,0,0,0,0,0,0,0,0,0,0,0,0,0,0,0,0,0,0,0,0,0,0,0,0,0,0.128,0.128,0,0.1274,0.1274,0.1274,0.1247,0.1246,0.1245,0.1245,0.1241,0.1241,0.1242,0,0,0,0,0,0,0,0,0,0,0,0,0,0.1268,0.1269,0.128,0.128,0.128,0.1274,0.1274,0.1274,0.1247,0.1246,0.1245,0.1244,0.124,0.1241,0.1242,0,0,0,0,0,0,0,0,0,0,0,0,0,0.1269,0.1269,0.128,0.1265,0.1264,0.1274,0.1274,0.1274,0.1247,0.1246,0.1245,0.1244,0.124,0.1241,0.1242,0.1266,0,0,0.1244,0.1244,0,0,0,0,0,0,0,0,0.1269,0.127,0.1267,0.1266,0.1265,0.126,0.1268,0.1271,0.1247,0.1253,0.1245,0.1244,0.1248,0.1248,0.1249,0.1266,0.1265,0.1244,0.1244,0.1245,0.1245,0,0,0,0,0,0,0,0.1269,0.127,0.1277,0.1268,0.1266,0.126,0.1259,0.1269,0.1256,0.1253,0.1251,0.125,0.1247,0.1248,0.1249,0.1265,0.1244,0.1245,0.1245,0.1245,0.1301,0.1302,0,0,0,0,0,0,0.1271,0.127,0.1278,0.1277,0.1265,0.1261,0.1259,0.1263,0.1256,0.1254,0.1251,0.1249,0.1248,0.1248,0.1249,0.1276,0.1245,0.1245,0.1246,0.13,0.1301,0.1302,0,0,0,0,0,0,0.1271,0.1272,0.1278,0.1273,0.1273,0.1262,0.1265,0.1263,0.1264,0.1255,0.1253,0.1255,0.1247,0.1248,0.1261,0.1275,0.1246,0.1246,0.1299,0.13,0.1302,0.1331,0,0,0,0,0,0,0.1271,0.1272,0.1281,0.1273,0.1274,0.1291,0.1266,0.1264,0.1265,0.1263,0.1258,0.1256,0.1246,0.1261,0.1262,0.1276,0.1247,0.1297,0.1299,0.1301,0.1329,0.1334,0.1338,0,0,0,0,0,0.127,0.129,0.1281,0.1282,0.1284,0.1291,0.1292,0.1279,0.1267,0.1276,0.1269,0.1256,0.1274,0.1262,0.1264,0.1278,0.1296,0.1299,0.1301,0.1327,0.1333,0.1337,0,0,0,0,0,0,0.1299,0.1288,0.1279,0.1296,0.1295,0.1287,0.1297,0.1286,0.1288,0.1286,0.1271,0.127,0.1286,0.1284,0.1271,0.1301,0.1283,0.1286,0.1302,0.1307,0.1311,0.1312,0.1248,0,0,0,0,0,0.1308,0.1314,0.1304,0.1321,0.132,0.1309,0.1312,0.1303,0.1301,0.13,0.1295,0.1294,0.1299,0.1303,0.1308,0.1328,0.1327,0.1339,0.1343,0.1347,0.1349,0.136,0.1365,0.131,0.131,0.131,0,0,0.1325,0.132,0.1325,0.1326,0.1324,0.1331,0.1309,0.1318,0.1323,0.1302,0.1314,0.1311,0.1309,0.1326,0.1334,0.1324,0.1364,0.135,0.1353,0.1353,0.1363,0.1368,0.1373,0.1311,0.1311,0.1311,0,0,0.1361,0.1357,0.137,0.1369,0.1365,0.1358,0.1361,0.1354,0.1351,0.1363,0.1347,0.1354,0.1363,0.1362,0.1363,0.1398,0.1386,0.14,0.1423,0.1433,0.1438,0.1441,0.1454,0.1458,0.1403,0.1403,0.1403,0,0.1383,0.1392,0.1379,0.1388,0.1389,0.137,0.1383,0.1383,0.1381,0.1383,0.1372,0.1383,0.1381,0.1398,0.1406,0.1408,0.1411,0.1401,0.1438,0.1442,0.1445,0.1457,0.1461,0.1405,0.1405,0.1404,0.1404,0,0.142,0.1427,0.1438,0.1436,0.1439,0.145,0.1439,0.1443,0.1434,0.1427,0.144,0.1436,0.1439,0.1443,0.1434,0.1458,0.1453,0.1441,0.1422,0.1452,0.1463,0.1467,0.1407,0.1407,0.1406,0.1406,0,0,0.1473,0.1464,0.1468,0.1467,0.1462,0.1467,0.1478,0.1481,0.1484,0.1484,0.1493,0.1501,0.149,0.1491,0.1482,0.1491,0.1519,0.1478,0.1477,0.1485,0.1545,0.1554,0.1559,0.1511,0.1512,0.1512,0.1545,0,0.1507,0.1524,0.1512,0.1531,0.1537,0.1519,0.1529,0.1527,0.1521,0.1526,0.152,0.1526,0.1511,0.1511,0.152,0.1514,0.1531,0.1511,0.1519,0.1519,0.1519,0.1565,0.1575,0.1606,0.1549,0.155,0.155,0,0.1548,0.1549,0.1568,0.1562,0.1564,0.1573,0.1574,0.1579,0.1577,0.1572,0.1573,0.1562,0.1572,0.1554,0.1568,0.1555,0.1558,0.1556,0.1556,0.1556,0.1536,0.1566,0.1615,0.162,0.1557,0.1556,0.1556,0,0.1584,0.159,0.1603,0.1603,0.1596,0.1602,0.1599,0.1596,0.1598,0.16,0.1601,0.1604,0.1606,0.1608,0.1598,0.1586,0.1613,0.1595,0.161,0.161,0.1616,0.1616,0.1667,0.1619,0.1619,0.1618,0.1618,0,0.1622,0.1635,0.1619,0.1627,0.164,0.1627,0.1641,0.1637,0.1634,0.1641,0.1626,0.1633,0.1619,0.1624,0.1617,0.1629,0.163,0.1627,0.1625,0.1628,0.1628,0.1629,0.1627,0.162,0.1619,0.1619,0.1619,0,0.1665,0.1655,0.1667,0.1659,0.1658,0.1668,0.1662,0.1669,0.1662,0.1671,0.1672,0.1662,0.1668,0.1658,0.1663,0.1658,0.1675,0.167,0.1676,0.1674,0.169,0.1688,0.1742,0.1748,0.1697,0.1698,0.1698,0,0.1689,0.1699,0.1692,0.1695,0.1693,0.1699,0.1701,0.1688,0.1691,0.1689,0.1696,0.1701,0.1703,0.1714,0.1707,0.171,0.1705,0.1723,0.1705,0.1708,0.1704,0.1704,0.1705,0.1727,0.1728,0.1728,0.1729,0,0.1734,0.1729,0.1732,0.1734,0.1736,0.1737,0.1737,0.1741,0.1727,0.1731,0.1737,0.1739,0.1743,0.1748,0.175,0.1748,0.1736,0.1734,0.1738,0.1741,0.1744,0.1742,0.1686,0.1733,0.1733,0.1732,0.1732,0.1732,0.1768,0.1775,0.1772,0.1776,0.1774,0.1775,0.1781,0.1775,0.1779,0.1781,0.1774,0.1781,0.1779,0.178,0.1779,0.1785,0.1776,0.1782,0.1783,0.1784,0.1786,0.1744,0.1785,0.1785,0.1785,0.1785,0.1784,0,0.1812,0.1808,0.1812,0.1812,0.1816,0.1804,0.1804,0.1807,0.1813,0.1812,0.1815,0.1821,0.1826,0.182,0.1823,0.1829,0.1823,0.183,0.1829,0.1829,0.1794,0.179,0.1834,0.1834,0.1834,0.1834,0.1834,0.1834,0.1834,0.1846,0.184,0.1851,0.1848,0.1854,0.1855,0.1855,0.1854,0.1861,0.1865,0.1861,0.1857,0.186,0.1864,0.1862,0.1864,0.1872,0.1868,0.1836,0.1831,0.1827,0.1823,0.1873,0.1873,0.1903,0.1903,0.1903]}]]